,,,PA_Meas_PMT16A,,PR_Meas_QMR101_102,,RH_Meas_QMH101,,SR_Meas_QMS101,,TA_Meas_QMH101,,GenWind,,GenWind,
date,time,status,PA,status,PR,status,RH,status,SR,status,TA,status,DirAvg,status,SpdAvg,
2009-04-25, 00:00:05,VALID,1006.39,VALID,0,VALID,91.928,VALID,0,VALID,24.7159,VALID,293,VALID,1.57266,
2009-04-25, 00:01:05,VALID,1006.47,VALID,0,VALID,91.4245,VALID,0,VALID,24.7743,VALID,298,VALID,2.54336,
2009-04-25, 00:02:05,VALID,1006.45,VALID,0,VALID,91.1956,VALID,0,VALID,24.8522,VALID,310,VALID,2.07227,
2009-04-25, 00:03:05,VALID,1006.41,VALID,0,VALID,90.8295,VALID,0,VALID,24.8892,VALID,292,VALID,1.50664,
2009-04-25, 00:04:05,VALID,1006.38,VALID,0,VALID,90.7989,VALID,0,VALID,24.969,VALID,333,VALID,0.942969,
2009-04-25, 00:05:04,VALID,1006.32,VALID,0,VALID,90.5548,VALID,0,VALID,24.9885,VALID,277,VALID,1.08281,
2009-04-25, 00:06:04,VALID,1006.28,VALID,0,VALID,90.3641,VALID,0,VALID,24.9885,VALID,282,VALID,1.67031,
2009-04-25, 00:07:04,VALID,1006.22,VALID,0,VALID,90.1734,VALID,0,VALID,24.9866,VALID,297,VALID,1.64102,
2009-04-25, 00:08:04,VALID,1006.2,VALID,0,VALID,90.387,VALID,0,VALID,25.0079,VALID,247,VALID,1.04492,
2009-04-25, 00:09:04,VALID,1006.1,VALID,0,VALID,90.3565,VALID,0,VALID,25.0293,VALID,359,VALID,1.28242,
2009-04-25, 00:10:04,VALID,1006.09,VALID,0,VALID,90.3259,VALID,0,VALID,25.0079,VALID,307,VALID,1.00937,
2009-04-25, 00:11:04,VALID,1006.06,VALID,0,VALID,90.4633,VALID,0,VALID,25.0274,VALID,298,VALID,1.23672,
2009-04-25, 00:12:04,VALID,1006.02,VALID,0,VALID,90.3107,VALID,0,VALID,25.0255,VALID,292,VALID,1.07266,
2009-04-25, 00:13:04,VALID,1006,VALID,0,VALID,90.12,VALID,0,VALID,25.0255,VALID,298,VALID,1.25391,
2009-04-25, 00:14:04,VALID,1005.97,VALID,0,VALID,90.3183,VALID,0.100563,VALID,25.0255,VALID,302,VALID,0.735156,
2009-04-25, 00:15:04,VALID,1006,VALID,0,VALID,90.7303,VALID,0,VALID,25.006,VALID,289,VALID,0.204297,
2009-04-25, 00:16:04,VALID,1006,VALID,0,VALID,90.715,VALID,0.100563,VALID,24.9457,VALID,331,VALID,0.926172,
2009-04-25, 00:17:04,VALID,1005.99,VALID,0,VALID,90.8218,VALID,0.100563,VALID,24.9068,VALID,332,VALID,0.5375,
2009-04-25, 00:18:04,VALID,1006.03,VALID,0,VALID,90.5167,VALID,0,VALID,24.8892,VALID,302,VALID,1.09687,
2009-04-25, 00:19:04,VALID,1006,VALID,0,VALID,89.8377,VALID,0,VALID,24.8503,VALID,349,VALID,2.17539,
2009-04-25, 00:20:04,VALID,1006.01,VALID,0,VALID,90.1505,VALID,0,VALID,24.8308,VALID,233,VALID,0.191797,
2009-04-25, 00:21:04,VALID,1006.01,VALID,0,VALID,89.8453,VALID,0,VALID,24.7724,VALID,323,VALID,0.946094,
2009-04-25, 00:22:04,VALID,1006,VALID,0,VALID,89.4944,VALID,0,VALID,24.7121,VALID,337,VALID,1.60586,
2009-04-25, 00:23:04,VALID,1006.04,VALID,0,VALID,89.441,VALID,0.100563,VALID,24.6945,VALID,328,VALID,1.30352,
2009-04-25, 00:24:04,VALID,1006.04,VALID,0,VALID,89.1664,VALID,0.100563,VALID,24.6537,VALID,240,VALID,0.948047,
2009-04-25, 00:25:04,VALID,1006.06,VALID,0,VALID,89.2274,VALID,0,VALID,24.6166,VALID,346,VALID,0.866406,
2009-04-25, 00:26:04,VALID,1005.98,VALID,0,VALID,88.9985,VALID,0,VALID,24.5388,VALID,341,VALID,1.34648,
2009-04-25, 00:27:04,VALID,1005.96,VALID,0,VALID,89.2121,VALID,0,VALID,24.5388,VALID,276,VALID,0.448828,
2009-04-25, 00:28:04,VALID,1005.9,VALID,0,VALID,89.2426,VALID,0,VALID,24.5406,VALID,18,VALID,0.641406,
2009-04-25, 00:29:04,VALID,1005.93,VALID,0,VALID,88.9451,VALID,0,VALID,24.5017,VALID,345,VALID,2.0668,
2009-04-25, 00:30:04,VALID,1005.91,VALID,0,VALID,88.9451,VALID,0,VALID,24.4822,VALID,349,VALID,1.41836,
2009-04-25, 00:31:04,VALID,1005.92,VALID,0,VALID,89.1435,VALID,0,VALID,24.4433,VALID,353,VALID,1.45078,
2009-04-25, 00:32:04,VALID,1005.88,VALID,0,VALID,89.0061,VALID,0,VALID,24.4043,VALID,325,VALID,0.748438,
2009-04-25, 00:33:04,VALID,1005.89,VALID,0,VALID,89.1969,VALID,0,VALID,24.4043,VALID,360,VALID,1.37695,
2009-04-25, 00:34:04,VALID,1005.85,VALID,0,VALID,89.5554,VALID,0,VALID,24.4043,VALID,236,VALID,0.371094,
2009-04-25, 00:35:04,VALID,1005.82,VALID,0,VALID,89.5859,VALID,0,VALID,24.3441,VALID,345,VALID,1.33203,
2009-04-25, 00:36:04,VALID,1005.85,VALID,0,VALID,89.7767,VALID,0,VALID,24.3265,VALID,337,VALID,0.870313,
2009-04-25, 00:37:04,VALID,1005.82,VALID,0,VALID,89.7309,VALID,0,VALID,24.2857,VALID,3,VALID,1.11758,
2009-04-25, 00:38:04,VALID,1005.8,VALID,0,VALID,89.9369,VALID,0,VALID,24.2662,VALID,5,VALID,0.957031,
2009-04-25, 00:39:04,VALID,1005.83,VALID,0,VALID,90.2115,VALID,0,VALID,24.2875,VALID,352,VALID,0.310547,
2009-04-25, 00:40:04,VALID,1005.83,VALID,0,VALID,90.3336,VALID,0,VALID,24.2486,VALID,348,VALID,0.939844,
2009-04-25, 00:41:04,VALID,1005.77,VALID,0,VALID,90.5243,VALID,0,VALID,24.2097,VALID,356,VALID,0.279297,
2009-04-25, 00:42:04,VALID,1005.75,VALID,0,VALID,90.12,VALID,0,VALID,24.1707,VALID,351,VALID,1.62539,
2009-04-25, 00:43:04,VALID,1005.7,VALID,0,VALID,89.9064,VALID,0,VALID,24.1707,VALID,2,VALID,1.64414,
2009-04-25, 00:44:04,VALID,1005.68,VALID,0,VALID,89.8453,VALID,0,VALID,24.1902,VALID,353,VALID,1.19648,
2009-04-25, 00:45:04,VALID,1005.62,VALID,0,VALID,89.8682,VALID,0,VALID,24.2097,VALID,357,VALID,1.45938,
2009-04-25, 00:46:04,VALID,1005.64,VALID,0,VALID,90.036,VALID,0,VALID,24.1902,VALID,3,VALID,1.40781,
2009-04-25, 00:47:04,VALID,1005.6,VALID,0,VALID,90.2115,VALID,0,VALID,24.1707,VALID,356,VALID,1.19258,
2009-04-25, 00:48:04,VALID,1005.56,VALID,0,VALID,90.3946,VALID,0,VALID,24.1531,VALID,356,VALID,1.01016,
2009-04-25, 00:49:04,VALID,1005.55,VALID,0,VALID,90.4785,VALID,0,VALID,24.0929,VALID,348,VALID,1.21328,
2009-04-25, 00:50:04,VALID,1005.58,VALID,0,VALID,90.5319,VALID,0,VALID,24.0734,VALID,349,VALID,1.2543,
2009-04-25, 00:51:04,VALID,1005.51,VALID,0,VALID,90.5548,VALID,0,VALID,24.0539,VALID,358,VALID,1.42578,
2009-04-25, 00:52:04,VALID,1005.46,VALID,0,VALID,90.3412,VALID,0,VALID,24.0345,VALID,350,VALID,1.37227,
2009-04-25, 00:53:04,VALID,1005.44,VALID,0,VALID,90.5014,VALID,0,VALID,24.0345,VALID,357,VALID,1.04531,
2009-04-25, 00:54:04,VALID,1005.42,VALID,0,VALID,90.6769,VALID,0,VALID,24.015,VALID,344,VALID,0.682031,
2009-04-25, 00:55:04,VALID,1005.38,VALID,0,VALID,90.6311,VALID,0,VALID,24.015,VALID,360,VALID,0.824609,
2009-04-25, 00:56:04,VALID,1005.33,VALID,0,VALID,90.593,VALID,0,VALID,24.015,VALID,352,VALID,0.480859,
2009-04-25, 00:57:04,VALID,1005.28,VALID,0,VALID,90.6769,VALID,0,VALID,24.015,VALID,336,VALID,0.583203,
2009-04-25, 00:58:04,VALID,1005.23,VALID,0,VALID,90.5624,VALID,0,VALID,23.9955,VALID,357,VALID,1.09883,
2009-04-25, 00:59:04,VALID,1005.17,VALID,0,VALID,90.2497,VALID,0,VALID,23.9955,VALID,349,VALID,1.27188,
2009-04-25, 01:00:04,VALID,1005.2,VALID,0,VALID,89.9521,VALID,0,VALID,23.9955,VALID,347,VALID,0.936328,
2009-04-25, 01:01:04,VALID,1005.19,VALID,0,VALID,89.9521,VALID,0,VALID,23.9937,VALID,350,VALID,0.602344,
2009-04-25, 01:02:04,VALID,1005.21,VALID,0,VALID,89.914,VALID,0,VALID,24.0345,VALID,348,VALID,0.679688,
2009-04-25, 01:03:04,VALID,1005.19,VALID,0,VALID,89.9598,VALID,0,VALID,24.0539,VALID,2,VALID,0.43125,
2009-04-25, 01:04:04,VALID,1005.18,VALID,0,VALID,89.5936,VALID,0,VALID,24.0345,VALID,356,VALID,0.487109,
2009-04-25, 01:05:04,VALID,1005.15,VALID,0,VALID,89.5173,VALID,0,VALID,24.0539,VALID,1,VALID,0.457031,
2009-04-25, 01:06:04,VALID,1005.14,VALID,0,VALID,89.0519,VALID,0,VALID,24.0345,VALID,354,VALID,0.861719,
2009-04-25, 01:07:04,VALID,1005.13,VALID,0,VALID,88.8078,VALID,0,VALID,24.0734,VALID,329,VALID,0.735156,
2009-04-25, 01:08:04,VALID,1005.11,VALID,0,VALID,88.5255,VALID,0,VALID,24.1123,VALID,319,VALID,0.669531,
2009-04-25, 01:09:04,VALID,1005.12,VALID,0,VALID,88.0754,VALID,0,VALID,24.1318,VALID,353,VALID,0.431641,
2009-04-25, 01:10:04,VALID,1005.1,VALID,0,VALID,87.6024,VALID,0,VALID,24.1707,VALID,325,VALID,1.34258,
2009-04-25, 01:11:04,VALID,1005.07,VALID,0,VALID,87.7245,VALID,0,VALID,24.1884,VALID,305,VALID,0.673828,
2009-04-25, 01:12:04,VALID,1005.05,VALID,0,VALID,87.7932,VALID,0.100563,VALID,24.2078,VALID,320,VALID,0.332031,
2009-04-25, 01:13:04,VALID,1004.98,VALID,0,VALID,87.8771,VALID,0,VALID,24.2078,VALID,320,VALID,0.346875,
2009-04-25, 01:14:04,VALID,1004.94,VALID,0,VALID,87.6635,VALID,0,VALID,24.1671,VALID,271,VALID,0.709375,
2009-04-25, 01:15:04,VALID,1004.93,VALID,0,VALID,87.7626,VALID,0,VALID,24.1884,VALID,294,VALID,0.176172,
2009-04-25, 01:16:04,VALID,1004.89,VALID,0,VALID,87.694,VALID,0.100563,VALID,24.1884,VALID,284,VALID,0.988281,
2009-04-25, 01:17:04,VALID,1004.91,VALID,0,VALID,87.6024,VALID,0,VALID,24.1671,VALID,285,VALID,1.12852,
2009-04-25, 01:18:04,VALID,1004.93,VALID,0,VALID,87.1142,VALID,0.100563,VALID,24.1884,VALID,281,VALID,1.30508,
2009-04-25, 01:19:04,VALID,1004.93,VALID,0,VALID,87.3736,VALID,0.100563,VALID,24.2078,VALID,289,VALID,0.594922,
2009-04-25, 01:20:04,VALID,1004.93,VALID,0,VALID,87.4193,VALID,0,VALID,24.2273,VALID,279,VALID,0.690625,
2009-04-25, 01:21:04,VALID,1004.93,VALID,0,VALID,87.076,VALID,0.100563,VALID,24.2273,VALID,295,VALID,1.23203,
2009-04-25, 01:22:04,VALID,1004.93,VALID,0,VALID,87.5414,VALID,0,VALID,24.2291,VALID,269,VALID,0.933984,
2009-04-25, 01:23:04,VALID,1004.92,VALID,0,VALID,87.0989,VALID,0.100563,VALID,24.2255,VALID,324,VALID,0.823047,
2009-04-25, 01:24:04,VALID,1004.92,VALID,0,VALID,87.4346,VALID,0.100563,VALID,24.2468,VALID,297,VALID,0.431641,
2009-04-25, 01:25:04,VALID,1004.9,VALID,0,VALID,87.7398,VALID,0,VALID,24.2662,VALID,288,VALID,0.167578,
2009-04-25, 01:26:04,VALID,1004.87,VALID,0,VALID,87.7474,VALID,0,VALID,24.2468,VALID,289,VALID,0.289063,
2009-04-25, 01:27:04,VALID,1004.85,VALID,0,VALID,87.7092,VALID,0.100563,VALID,24.2273,VALID,288,VALID,0.191406,
2009-04-25, 01:28:04,VALID,1004.88,VALID,0,VALID,87.8313,VALID,0.100563,VALID,24.1865,VALID,339,VALID,0.742969,
2009-04-25, 01:29:04,VALID,1004.89,VALID,0,VALID,87.6787,VALID,0,VALID,24.1884,VALID,295,VALID,0.248437,
2009-04-25, 01:30:04,VALID,1004.91,VALID,0,VALID,88.228,VALID,0.100563,VALID,24.2078,VALID,295,VALID,0.0433594,
2009-04-25, 01:31:04,VALID,1004.89,VALID,0,VALID,88.1288,VALID,0.100563,VALID,24.1884,VALID,307,VALID,0.229297,
2009-04-25, 01:32:04,VALID,1004.89,VALID,0,VALID,87.7626,VALID,0,VALID,24.1689,VALID,351,VALID,0.510156,
2009-04-25, 01:33:04,VALID,1004.88,VALID,0,VALID,87.9381,VALID,0.100563,VALID,24.1689,VALID,360,VALID,0.911328,
2009-04-25, 01:34:04,VALID,1004.87,VALID,0,VALID,87.8313,VALID,0.100563,VALID,24.1494,VALID,306,VALID,0.526953,
2009-04-25, 01:35:04,VALID,1004.85,VALID,0,VALID,88.0754,VALID,0,VALID,24.1494,VALID,306,VALID,0.0246094,
2009-04-25, 01:36:04,VALID,1004.83,VALID,0,VALID,88.0831,VALID,0.100563,VALID,24.1281,VALID,306,VALID,0.154297,
2009-04-25, 01:37:04,VALID,1004.84,VALID,0,VALID,88.0983,VALID,0,VALID,24.1318,VALID,319,VALID,0.314063,
2009-04-25, 01:38:04,VALID,1004.81,VALID,0,VALID,88.3272,VALID,0,VALID,24.13,VALID,319,VALID,0,
2009-04-25, 01:39:04,VALID,1004.77,VALID,0,VALID,88.5332,VALID,0,VALID,24.1105,VALID,319,VALID,0.00429688,
2009-04-25, 01:40:04,VALID,1004.77,VALID,0,VALID,88.5637,VALID,0.100563,VALID,24.0892,VALID,314,VALID,0.0746094,
2009-04-25, 01:41:04,VALID,1004.73,VALID,0,VALID,88.5408,VALID,0,VALID,24.1123,VALID,313,VALID,0.319141,
2009-04-25, 01:42:04,VALID,1004.73,VALID,0,VALID,88.5637,VALID,0,VALID,24.0929,VALID,315,VALID,0.00117188,
2009-04-25, 01:43:04,VALID,1004.73,VALID,0,VALID,88.5637,VALID,0,VALID,24.0929,VALID,315,VALID,0.123828,
2009-04-25, 01:44:04,VALID,1004.72,VALID,0,VALID,88.0831,VALID,0,VALID,24.0734,VALID,292,VALID,0.776563,
2009-04-25, 01:45:04,VALID,1004.75,VALID,0,VALID,88.3424,VALID,0,VALID,24.1123,VALID,266,VALID,0.327734,
2009-04-25, 01:46:04,VALID,1004.77,VALID,0,VALID,87.8389,VALID,0,VALID,24.1123,VALID,255,VALID,0.704687,
2009-04-25, 01:47:04,VALID,1004.75,VALID,0,VALID,88.1746,VALID,0,VALID,24.1105,VALID,234,VALID,0.247266,
2009-04-25, 01:48:04,VALID,1004.74,VALID,0,VALID,88.4645,VALID,0,VALID,24.1318,VALID,234,VALID,0.35,
2009-04-25, 01:49:04,VALID,1004.76,VALID,0,VALID,88.6934,VALID,0,VALID,24.0929,VALID,234,VALID,0.155078,
2009-04-25, 01:50:04,VALID,1004.79,VALID,0,VALID,88.7697,VALID,0,VALID,24.0734,VALID,234,VALID,0.195313,
2009-04-25, 01:51:04,VALID,1004.76,VALID,0,VALID,88.2738,VALID,0,VALID,24.0539,VALID,287,VALID,0.678516,
2009-04-25, 01:52:04,VALID,1004.78,VALID,0,VALID,87.9839,VALID,0,VALID,24.0539,VALID,292,VALID,0.680078,
2009-04-25, 01:53:04,VALID,1004.8,VALID,0,VALID,87.8847,VALID,0,VALID,24.0734,VALID,296,VALID,0.33125,
2009-04-25, 01:54:04,VALID,1004.77,VALID,0,VALID,87.8237,VALID,0,VALID,24.0734,VALID,302,VALID,0.241797,
2009-04-25, 01:55:04,VALID,1004.73,VALID,0,VALID,88.0525,VALID,0,VALID,24.0716,VALID,302,VALID,0,
2009-04-25, 01:56:04,VALID,1004.72,VALID,0,VALID,88.0525,VALID,0,VALID,24.1123,VALID,302,VALID,0.0152344,
2009-04-25, 01:57:04,VALID,1004.68,VALID,0,VALID,88.2433,VALID,0,VALID,24.1123,VALID,301,VALID,0.18125,
2009-04-25, 01:58:04,VALID,1004.67,VALID,0,VALID,88.4645,VALID,0,VALID,24.0929,VALID,301,VALID,0.0164062,
2009-04-25, 01:59:04,VALID,1004.64,VALID,0,VALID,88.7849,VALID,0,VALID,24.0929,VALID,301,VALID,0.248437,
2009-04-25, 02:00:04,VALID,1004.66,VALID,0,VALID,89.1435,VALID,0,VALID,24.0734,VALID,301,VALID,0.186719,
2009-04-25, 02:01:04,VALID,1004.65,VALID,0,VALID,89.5097,VALID,0,VALID,24.0539,VALID,272,VALID,0.256641,
2009-04-25, 02:02:04,VALID,1004.62,VALID,0,VALID,89.5707,VALID,0,VALID,24.015,VALID,272,VALID,0.0269531,
2009-04-25, 02:03:04,VALID,1004.6,VALID,0,VALID,89.7843,VALID,0,VALID,23.9955,VALID,272,VALID,0,
2009-04-25, 02:04:04,VALID,1004.58,VALID,0,VALID,89.7843,VALID,0,VALID,23.9761,VALID,272,VALID,0.0691406,
2009-04-25, 02:05:04,VALID,1004.54,VALID,0,VALID,90.036,VALID,0,VALID,23.9566,VALID,303,VALID,0.600391,
2009-04-25, 02:06:04,VALID,1004.54,VALID,0,VALID,90.5624,VALID,0,VALID,23.8964,VALID,353,VALID,0.548047,
2009-04-25, 02:07:04,VALID,1004.52,VALID,0,VALID,90.6692,VALID,0,VALID,23.8787,VALID,356,VALID,0.616797,
2009-04-25, 02:08:04,VALID,1004.5,VALID,0,VALID,90.8523,VALID,0,VALID,23.8203,VALID,356,VALID,0.598437,
2009-04-25, 02:09:04,VALID,1004.51,VALID,0,VALID,91.1575,VALID,0,VALID,23.7814,VALID,356,VALID,0.616797,
2009-04-25, 02:10:04,VALID,1004.51,VALID,0,VALID,91.2872,VALID,0,VALID,23.7035,VALID,356,VALID,0.500781,
2009-04-25, 02:11:04,VALID,1004.48,VALID,0,VALID,91.5008,VALID,0,VALID,23.6434,VALID,356,VALID,0.326953,
2009-04-25, 02:12:04,VALID,1004.5,VALID,0,VALID,91.6076,VALID,0,VALID,23.6452,VALID,356,VALID,0.445313,
2009-04-25, 02:13:04,VALID,1004.48,VALID,0,VALID,91.6152,VALID,0,VALID,23.608,VALID,356,VALID,0.364062,
2009-04-25, 02:14:04,VALID,1004.47,VALID,0,VALID,91.8212,VALID,0,VALID,23.5868,VALID,356,VALID,0.373047,
2009-04-25, 02:15:04,VALID,1004.48,VALID,0,VALID,91.8441,VALID,0,VALID,23.5673,VALID,356,VALID,0.384766,
2009-04-25, 02:16:04,VALID,1004.45,VALID,0,VALID,92.0119,VALID,0,VALID,23.5284,VALID,356,VALID,0.266406,
2009-04-25, 02:17:04,VALID,1004.46,VALID,0,VALID,92.0501,VALID,0,VALID,23.5071,VALID,356,VALID,0.186719,
2009-04-25, 02:18:04,VALID,1004.44,VALID,0,VALID,92.1264,VALID,0,VALID,23.5284,VALID,356,VALID,0.14375,
2009-04-25, 02:19:04,VALID,1004.41,VALID,0,VALID,92.2484,VALID,0,VALID,23.5478,VALID,356,VALID,0.267578,
2009-04-25, 02:20:04,VALID,1004.4,VALID,0,VALID,92.4391,VALID,0,VALID,23.5673,VALID,356,VALID,0.133594,
2009-04-25, 02:21:04,VALID,1004.39,VALID,0,VALID,92.5765,VALID,0,VALID,23.5868,VALID,356,VALID,0.00351562,
2009-04-25, 02:22:04,VALID,1004.38,VALID,0,VALID,92.668,VALID,0,VALID,23.5868,VALID,356,VALID,0.0183594,
2009-04-25, 02:23:04,VALID,1004.37,VALID,0,VALID,92.6756,VALID,0,VALID,23.5885,VALID,356,VALID,0,
2009-04-25, 02:24:04,VALID,1004.35,VALID,0,VALID,92.6985,VALID,0,VALID,23.546,VALID,356,VALID,0,
2009-04-25, 02:25:04,VALID,1004.36,VALID,0,VALID,92.7748,VALID,0,VALID,23.5284,VALID,356,VALID,0,
2009-04-25, 02:26:04,VALID,1004.31,VALID,0,VALID,92.7977,VALID,0,VALID,23.546,VALID,356,VALID,0,
2009-04-25, 02:27:04,VALID,1004.32,VALID,0,VALID,92.8206,VALID,0.100563,VALID,23.4859,VALID,356,VALID,0,
2009-04-25, 02:28:04,VALID,1004.32,VALID,0,VALID,92.9121,VALID,0,VALID,23.4877,VALID,356,VALID,0,
2009-04-25, 02:29:04,VALID,1004.31,VALID,0,VALID,93.0037,VALID,0,VALID,23.5071,VALID,356,VALID,0,
2009-04-25, 02:30:04,VALID,1004.26,VALID,0,VALID,93.08,VALID,0.100563,VALID,23.4877,VALID,356,VALID,0,
2009-04-25, 02:31:04,VALID,1004.26,VALID,0,VALID,93.0952,VALID,0.100563,VALID,23.4859,VALID,356,VALID,0,
2009-04-25, 02:32:04,VALID,1004.27,VALID,0,VALID,93.0952,VALID,0,VALID,23.4877,VALID,356,VALID,0,
2009-04-25, 02:33:04,VALID,1004.24,VALID,0,VALID,93.1639,VALID,0,VALID,23.447,VALID,356,VALID,0,
2009-04-25, 02:34:04,VALID,1004.22,VALID,0,VALID,93.1791,VALID,0.100563,VALID,23.4682,VALID,356,VALID,0,
2009-04-25, 02:35:04,VALID,1004.24,VALID,0,VALID,93.2325,VALID,0.100563,VALID,23.447,VALID,356,VALID,0,
2009-04-25, 02:36:04,VALID,1004.2,VALID,0,VALID,93.2249,VALID,0,VALID,23.4487,VALID,356,VALID,0,
2009-04-25, 02:37:04,VALID,1004.23,VALID,0,VALID,93.2478,VALID,0,VALID,23.4487,VALID,356,VALID,0,
2009-04-25, 02:38:04,VALID,1004.21,VALID,0,VALID,93.3165,VALID,0,VALID,23.4293,VALID,356,VALID,0,
2009-04-25, 02:39:04,VALID,1004.24,VALID,0,VALID,93.347,VALID,0,VALID,23.4293,VALID,356,VALID,0,
2009-04-25, 02:40:04,VALID,1004.26,VALID,0,VALID,93.3928,VALID,0,VALID,23.4293,VALID,356,VALID,0,
2009-04-25, 02:41:04,VALID,1004.25,VALID,0,VALID,93.408,VALID,0,VALID,23.4311,VALID,356,VALID,0,
2009-04-25, 02:42:04,VALID,1004.27,VALID,0,VALID,93.4462,VALID,0,VALID,23.4116,VALID,356,VALID,0,
2009-04-25, 02:43:04,VALID,1004.22,VALID,0,VALID,93.4996,VALID,0,VALID,23.4311,VALID,356,VALID,0,
2009-04-25, 02:44:04,VALID,1004.23,VALID,0,VALID,93.5377,VALID,0,VALID,23.4311,VALID,356,VALID,0,
2009-04-25, 02:45:04,VALID,1004.21,VALID,0,VALID,93.5606,VALID,0,VALID,23.4505,VALID,356,VALID,0,
2009-04-25, 02:46:04,VALID,1004.18,VALID,0,VALID,93.5606,VALID,0,VALID,23.4505,VALID,354,VALID,0.241016,
2009-04-25, 02:47:04,VALID,1004.19,VALID,0,VALID,93.6216,VALID,0,VALID,23.4894,VALID,353,VALID,0.726953,
2009-04-25, 02:48:04,VALID,1004.16,VALID,0,VALID,93.6369,VALID,0,VALID,23.5284,VALID,345,VALID,0.805469,
2009-04-25, 02:49:04,VALID,1004.17,VALID,0,VALID,93.5377,VALID,0,VALID,23.5868,VALID,354,VALID,0.0710938,
2009-04-25, 02:50:04,VALID,1004.16,VALID,0,VALID,93.4614,VALID,0,VALID,23.6452,VALID,354,VALID,0.102344,
2009-04-25, 02:51:04,VALID,1004.17,VALID,0,VALID,93.3851,VALID,0,VALID,23.7017,VALID,353,VALID,0.771484,
2009-04-25, 02:52:04,VALID,1004.16,VALID,0,VALID,93.2325,VALID,0,VALID,23.7814,VALID,353,VALID,0.232031,
2009-04-25, 02:53:04,VALID,1004.15,VALID,0,VALID,93.0495,VALID,0,VALID,23.8009,VALID,350,VALID,0.505078,
2009-04-25, 02:54:04,VALID,1004.13,VALID,0,VALID,92.874,VALID,0,VALID,23.8787,VALID,350,VALID,0.0164062,
2009-04-25, 02:55:04,VALID,1004.12,VALID,0,VALID,92.6299,VALID,0,VALID,23.9177,VALID,5,VALID,0.589453,
2009-04-25, 02:56:04,VALID,1004.11,VALID,0,VALID,92.4086,VALID,0,VALID,23.9761,VALID,348,VALID,0.39375,
2009-04-25, 02:57:04,VALID,1004.08,VALID,0,VALID,92.2179,VALID,0,VALID,23.9955,VALID,348,VALID,0.0683594,
2009-04-25, 02:58:04,VALID,1004.07,VALID,0,VALID,92.0424,VALID,0,VALID,24.015,VALID,348,VALID,0.526563,
2009-04-25, 02:59:04,VALID,1004.06,VALID,0,VALID,91.9585,VALID,0,VALID,24.0326,VALID,348,VALID,0.251172,
2009-04-25, 03:00:04,VALID,1004.09,VALID,0,VALID,91.8059,VALID,0,VALID,24.0345,VALID,348,VALID,0.482812,
2009-04-25, 03:01:04,VALID,1004.1,VALID,0,VALID,91.6534,VALID,0,VALID,24.0132,VALID,348,VALID,0.509766,
2009-04-25, 03:02:04,VALID,1004.11,VALID,0,VALID,91.5237,VALID,0,VALID,23.9937,VALID,342,VALID,0.611328,
2009-04-25, 03:03:04,VALID,1004.1,VALID,0,VALID,91.4169,VALID,0,VALID,23.9937,VALID,342,VALID,0.328516,
2009-04-25, 03:04:04,VALID,1004.1,VALID,0,VALID,91.4321,VALID,0,VALID,23.9937,VALID,342,VALID,0.329297,
2009-04-25, 03:05:04,VALID,1004.1,VALID,0,VALID,91.3558,VALID,0,VALID,24.0132,VALID,342,VALID,0.412109,
2009-04-25, 03:06:04,VALID,1004.09,VALID,0,VALID,91.4169,VALID,0,VALID,24.015,VALID,342,VALID,0,
2009-04-25, 03:07:04,VALID,1004.08,VALID,0,VALID,91.4855,VALID,0,VALID,24.0345,VALID,343,VALID,0.499609,
2009-04-25, 03:08:04,VALID,1004.1,VALID,0,VALID,91.5618,VALID,0,VALID,24.0539,VALID,355,VALID,0.411719,
2009-04-25, 03:09:04,VALID,1004.1,VALID,0,VALID,91.455,VALID,0,VALID,24.0734,VALID,352,VALID,0.487109,
2009-04-25, 03:10:04,VALID,1004.1,VALID,0,VALID,91.3406,VALID,0,VALID,24.0716,VALID,352,VALID,0.254687,
2009-04-25, 03:11:04,VALID,1004.09,VALID,0,VALID,91.2643,VALID,0,VALID,24.1513,VALID,352,VALID,0.494141,
2009-04-25, 03:12:04,VALID,1004.07,VALID,0,VALID,91.1651,VALID,0,VALID,24.1707,VALID,352,VALID,0.574609,
2009-04-25, 03:13:04,VALID,1004.13,VALID,0,VALID,91.0202,VALID,0,VALID,24.1902,VALID,352,VALID,0.3,
2009-04-25, 03:14:04,VALID,1004.13,VALID,0,VALID,90.9744,VALID,0,VALID,24.2097,VALID,352,VALID,0,
2009-04-25, 03:15:04,VALID,1004.14,VALID,0,VALID,90.982,VALID,0,VALID,24.2273,VALID,352,VALID,0.174609,
2009-04-25, 03:16:04,VALID,1004.17,VALID,0,VALID,90.9134,VALID,0,VALID,24.2273,VALID,352,VALID,0.00117188,
2009-04-25, 03:17:04,VALID,1004.16,VALID,0,VALID,90.7913,VALID,0,VALID,24.2273,VALID,352,VALID,0.410547,
2009-04-25, 03:18:04,VALID,1004.18,VALID,0,VALID,90.7455,VALID,0,VALID,24.2468,VALID,352,VALID,0.443359,
2009-04-25, 03:19:04,VALID,1004.2,VALID,0,VALID,90.7455,VALID,0,VALID,24.2681,VALID,352,VALID,0.00585938,
2009-04-25, 03:20:04,VALID,1004.2,VALID,0,VALID,90.7837,VALID,0,VALID,24.2486,VALID,352,VALID,0.0195313,
2009-04-25, 03:21:04,VALID,1004.23,VALID,0,VALID,90.8523,VALID,0,VALID,24.2273,VALID,352,VALID,0,
2009-04-25, 03:22:04,VALID,1004.22,VALID,0,VALID,90.8523,VALID,0,VALID,24.2486,VALID,306,VALID,0.524609,
2009-04-25, 03:23:04,VALID,1004.24,VALID,0,VALID,90.6845,VALID,0,VALID,24.2486,VALID,303,VALID,0.237109,
2009-04-25, 03:24:04,VALID,1004.25,VALID,0,VALID,90.6845,VALID,0,VALID,24.2681,VALID,303,VALID,0.316016,
2009-04-25, 03:25:04,VALID,1004.24,VALID,0,VALID,90.6082,VALID,0,VALID,24.2681,VALID,311,VALID,0.467187,
2009-04-25, 03:26:04,VALID,1004.25,VALID,0,VALID,90.5548,VALID,0,VALID,24.2273,VALID,294,VALID,0.236719,
2009-04-25, 03:27:04,VALID,1004.27,VALID,0,VALID,90.5319,VALID,0,VALID,24.2468,VALID,292,VALID,0.538281,
2009-04-25, 03:28:04,VALID,1004.28,VALID,0,VALID,90.4251,VALID,0,VALID,24.2662,VALID,291,VALID,0.778516,
2009-04-25, 03:29:04,VALID,1004.27,VALID,0,VALID,90.387,VALID,0,VALID,24.2875,VALID,296,VALID,0.899219,
2009-04-25, 03:30:04,VALID,1004.3,VALID,0,VALID,90.3717,VALID,0,VALID,24.2662,VALID,324,VALID,0.377734,
2009-04-25, 03:31:04,VALID,1004.3,VALID,0,VALID,90.3336,VALID,0,VALID,24.2875,VALID,356,VALID,0.811328,
2009-04-25, 03:32:04,VALID,1004.3,VALID,0,VALID,90.3259,VALID,0,VALID,24.3088,VALID,331,VALID,0.361328,
2009-04-25, 03:33:04,VALID,1004.32,VALID,0,VALID,90.3717,VALID,0,VALID,24.2681,VALID,345,VALID,0.278125,
2009-04-25, 03:34:04,VALID,1004.33,VALID,0,VALID,90.3946,VALID,0,VALID,24.2468,VALID,345,VALID,0.217187,
2009-04-25, 03:35:04,VALID,1004.33,VALID,0,VALID,90.4709,VALID,0,VALID,24.2468,VALID,345,VALID,0.327734,
2009-04-25, 03:36:04,VALID,1004.34,VALID,0,VALID,90.509,VALID,0,VALID,24.2894,VALID,345,VALID,0.203906,
2009-04-25, 03:37:04,VALID,1004.33,VALID,0,VALID,90.4709,VALID,0,VALID,24.2486,VALID,345,VALID,0.264062,
2009-04-25, 03:38:04,VALID,1004.33,VALID,0,VALID,90.5548,VALID,0,VALID,24.2291,VALID,343,VALID,0,
2009-04-25, 03:39:04,VALID,1004.35,VALID,0,VALID,90.654,VALID,0,VALID,24.2291,VALID,343,VALID,0,
2009-04-25, 03:40:04,VALID,1004.35,VALID,0,VALID,90.7913,VALID,0,VALID,24.2291,VALID,343,VALID,0,
2009-04-25, 03:41:04,VALID,1004.33,VALID,0,VALID,90.7913,VALID,0,VALID,24.1902,VALID,334,VALID,0,
2009-04-25, 03:42:04,VALID,1004.34,VALID,0,VALID,90.9363,VALID,0,VALID,24.1689,VALID,334,VALID,0,
2009-04-25, 03:43:04,VALID,1004.36,VALID,0,VALID,91.0812,VALID,0,VALID,24.2115,VALID,334,VALID,0,
2009-04-25, 03:44:04,VALID,1004.35,VALID,0,VALID,91.127,VALID,0,VALID,24.1513,VALID,334,VALID,0,
2009-04-25, 03:45:04,VALID,1004.39,VALID,0,VALID,91.2643,VALID,0,VALID,24.1513,VALID,334,VALID,0.0261719,